Location: Allen Fire Department Station 4
(33.1073°N, 96.6988°W)
Time: 16:24:59
(UTC+00:00)

Aurora 2 Rocket - Pass Details

Date: 05 July 2022
Orbit: 389 x 1718 km, 25.0° (Epoch: 06 August)

Event Time Altitude Azimuth Distance (km) Brightness Sun altitude
Rises 04:49:30 0° 258° (WSW) 4,700 7.2 -29.1°
Reaches altitude 10° 04:53:10 10° 253° (WSW) 3,549 6.5 -29.4°
Enters shadow 04:59:04 36° 226° (SW) 1,863 4.7 -29.9°
